Location: Atbuku
(36.4936°N, 30.4362°E)
Time: 10:12:14
(UTC+00:00)

Cosmos 1607 - Pass Details

Date: 16 March 2026
Orbit: 919 x 983 km, 65.0° (Epoch: 20 April)

Event Time Altitude Azimuth Distance (km) Brightness Sun altitude
Rises 16:33:39 0° 333° (NNW) 3,645 7.4 -6.3°
Reaches altitude 10° 16:36:14 10° 336° (NNW) 2,705 6.7 -6.8°
Maximum altitude 16:42:32 65° 58° (ENE) 1,067 4.0 -8.1°
Drops below altitude 10° 16:48:52 10° 140° (SE) 2,723 5.9 -9.4°
Sets 16:51:28 0° 143° (SE) 3,670 6.6 -9.9°
